Weather History for Fort Wayne, IN

Change the Weather History Date:

Wednesday, September 11, 2013

  Actual Average Record
Temperature  
Mean Temperature 83 °F 66 °F  
Max Temperature 95 °F 78 °F 95 °F (1931)
Min Temperature 70 °F 55 °F 39 °F (1917)
Degree Days  
Heating Degree Days 0 2  
Month to date heating degree days 2 15  
Since 1 July heating degree days 22 27  
Cooling Degree Days 18 3  
Month to date cooling degree days 75 47  
Year to date cooling degree days 804 764  
Growing Degree Days 32 (Base 50)    
Moisture  
Dew Point 66 °F    
Average Humidity 63    
Maximum Humidity 87    
Minimum Humidity 25    
Precipitation  
Precipitation 0.00 in 0.09 in 1.70 in (1975)
Month to date precipitation T 1.05  
Year to date precipitation 32.34 27.89  
Snow  
Snow 0.00 in 0.00 in 0.00 in (2002)
Month to date snowfall 0.0 0.0  
Since 1 July snowfall 0.0 0.0  
Since 1 September snowfall 0.0 0.0  
Snow Depth 0.00 in    
Sea Level Pressure  
Sea Level Pressure 30.04 in    
Wind  
Wind Speed 7 mph (WSW)    
Max Wind Speed 17 mph    
Max Gust Speed 23 mph    
Visibility 10 miles    
Events      
T = Trace of Precipitation, MM = Missing Value Source: NWS Daily Summary

Daily Weather History Graph

Daily Weather History Graph

Search for Another Location

Airport:

Trip Planner

Search our weather history database for the weather conditions in past years. The results will help you decide how hot, cold, wet, or windy it might be!

Date:

Astronomy

Sep. 11, 2013 Rise Set
Actual Time 7:17 AM EDT 7:56 PM EDT
Civil Twilight 6:49 AM EDT 8:23 PM EDT
Nautical Twilight 6:17 AM EDT 8:56 PM EDT
Astronomical Twilight 5:43 AM EDT 9:30 PM EDT
Moon 1:48 PM EDT (9/11) 11:48 PM EDT (9/11)
Length of Visible Light 13h 34m
Length of Day
12h 38m
Waxing Crescent, 38% of the Moon is Illuminated
Sep 11
Waxing Crescent
Sep 12
First Quarter
Sep 19
Full
Sep 26
Last Quarter
Oct 4
New

Hourly Weather History & Observations

Time (EDT) Temp. Heat Index Dew Point Humidity Pressure Visibility Wind Dir Wind Speed Gust Speed Precip Events Conditions
12:54 AM 73.9 °F - 68.0 °F 82% 30.08 in 10.0 mi SW 6.9 mph - N/A   Mostly Cloudy
1:54 AM 73.0 °F - 68.0 °F 84% 30.07 in 10.0 mi SW 4.6 mph - N/A   Mostly Cloudy
2:54 AM 73.0 °F - 68.0 °F 84% 30.07 in 10.0 mi SW 5.8 mph - N/A   Mostly Cloudy
3:54 AM 73.0 °F - 68.0 °F 84% 30.06 in 10.0 mi SW 4.6 mph - N/A   Mostly Cloudy
4:54 AM 73.0 °F - 68.0 °F 84% 30.06 in 10.0 mi SW 4.6 mph - N/A   Mostly Cloudy
5:54 AM 73.0 °F - 68.0 °F 84% 30.07 in 10.0 mi SSW 6.9 mph - N/A   Overcast
6:54 AM 72.0 °F - 66.9 °F 84% 30.07 in 10.0 mi SSW 6.9 mph - N/A   Scattered Clouds
7:54 AM 71.1 °F - 66.9 °F 87% 30.09 in 7.0 mi SSW 5.8 mph - N/A   Scattered Clouds
8:54 AM 73.9 °F - 69.1 °F 85% 30.10 in 8.0 mi SW 8.1 mph - N/A   Mostly Cloudy
9:54 AM 78.1 °F - 70.0 °F 76% 30.10 in 9.0 mi SW 8.1 mph - N/A   Scattered Clouds
10:54 AM 84.0 °F 87.8 °F 69.1 °F 61% 30.09 in 9.0 mi WSW 8.1 mph - N/A   Scattered Clouds
11:54 AM 88.0 °F 92.1 °F 69.1 °F 53% 30.07 in 10.0 mi WSW 8.1 mph - N/A   Scattered Clouds
12:54 PM 91.0 °F 94.3 °F 66.9 °F 45% 30.06 in 10.0 mi WSW 11.5 mph 21.9 mph N/A   Scattered Clouds
1:54 PM 91.9 °F 94.1 °F 64.9 °F 41% 30.04 in 10.0 mi WSW 12.7 mph 20.7 mph N/A   Mostly Cloudy
2:54 PM 93.0 °F 93.0 °F 61.0 °F 34% 30.02 in 10.0 mi WSW 13.8 mph 19.6 mph N/A   Mostly Cloudy
3:54 PM 95.0 °F 95.6 °F 62.1 °F 33% 30.00 in 10.0 mi WSW 10.4 mph 16.1 mph N/A   Scattered Clouds
4:54 PM 93.0 °F 93.0 °F 61.0 °F 34% 29.98 in 10.0 mi WSW 11.5 mph - N/A   Scattered Clouds
5:54 PM 91.9 °F 92.5 °F 62.1 °F 37% 29.97 in 10.0 mi WSW 10.4 mph 20.7 mph N/A   Scattered Clouds
6:54 PM 89.1 °F 90.0 °F 63.0 °F 42% 29.97 in 10.0 mi WSW 5.8 mph - N/A   Scattered Clouds
7:54 PM 86.0 °F 86.8 °F 63.0 °F 46% 29.97 in 10.0 mi SW 5.8 mph - N/A   Mostly Cloudy
8:54 PM 79.0 °F - 66.0 °F 64% 29.99 in 10.0 mi NNW 4.6 mph - N/A   Scattered Clouds
9:54 PM 75.9 °F - 66.9 °F 74% 30.01 in 10.0 mi Calm Calm - N/A   Scattered Clouds
10:54 PM 73.0 °F - 66.9 °F 81% 30.01 in 9.0 mi NW 4.6 mph - N/A   Partly Cloudy
11:54 PM 71.1 °F - 66.9 °F 87% 29.99 in 10.0 mi West 3.5 mph - N/A   Scattered Clouds